Tracking 19559 objects as of 26-Mar-2019
HD Live streaming from Space Station
objects crossing your sky now

NATO 3C

Track NATO 3C now!
NATO 3C is classified as:


NORAD ID: 11115
Int'l Code: 1978-106A
Perigee: 36,272.3 km
Apogee: 36,333.7 km
Inclination: 13.7 °
Period: 1,462.2 minutes
Semi major axis: 42673 km
RCS: 7.0899 m2 (large)
Launch date: November 19, 1978
Source: North Atlantic Treaty Organization (NATO)
Launch site: AIR FORCE EASTERN TEST RANGE (AFETR)
aabbcc
Your satellite tracking list
Your tracking list is empty




NASA's NSSDC Master Catalog

Two Line Element Set (TLE):
1 11115U 78106A   19084.29129977 -.00000016  00000-0  00000+0 0  9996
2 11115  13.6776 336.4281 0007188 323.3374 225.8999  0.98482262629324
Source of the keplerian elements: AFSPC